www.pogodaiklimat.ru

Погода и климат >> Архив погоды >> Бразилия >> Гояс >> Каталан


ПОГОДА в Каталане

  • Прогноз погоды в Каталане
  • Монитор погоды в Каталане

АРХИВ ПОГОДЫ в Каталане

Время (UTC), дата Ветер
(напр.,м/с)
 
Видим.   Явления Облачность Т
(С)
Тd
(С)
f
(%)
Тe
(С)
Тes
(С)
Комфортность P
(гПа)
Po
(гПа)
Тmin
(С)
Tmax
(С)
R
(мм)
R24
(мм)
S
(см)
01 13.07 СВ 1
{2}
н/о н/о +21.1 +8.7 45 +22 +22 комфорт 1018.8 917.6
02 13.07 СВ 1
{2}
н/о н/о +21.3 +8.5 44 +22 +22 комфорт 1018.4 917.3
03 13.07 СВ 1
{2}
н/о н/о +21.3 +8.1 43 +22 +22 комфорт 1018.1 917.0
04 13.07 С 1
{2}
н/о н/о +21.3 +8.0 42 +22 +22 комфорт 1018.0 916.9
05 13.07 штиль 0
{2}
н/о н/о +17.4 +9.4 59 +17 +17 1019.1 916.6
06 13.07 штиль 0
{1}
н/о н/о +16.9 +9.6 62 +17 +17 1019.1 916.5
07 13.07 штиль 0
{1}
н/о н/о +15.8 +9.7 67 +16 +16 1019.4 916.4
08 13.07 В 1
{1}
н/о н/о +16.6 +9.6 63 +18 +18 1019.1 916.4
09 13.07 штиль 0
{1}
н/о н/о +16.0 +9.6 66 +16 +16 1020.0 917.0
10 13.07 штиль 0
{1}
н/о н/о +15.8 +9.5 66 +16 +16 1020.7 917.5
11 13.07 В 1
{1}
н/о н/о +19.1 +10.2 56 +22 +22 комфорт 1020.1 918.1
12 13.07 СВ 1
{2}
н/о н/о +22.3 +9.4 44 +24 +24 комфорт 1019.6 918.7
14 13.07 СВ 2
{3}
н/о н/о +26.2 +9.1 34 +27 +27 жарко 1018.3 918.8
15 13.07 СВ 1
{3}
н/о н/о +28.1 +8.0 28 +28 +28 жарко 1016.8 918.0
17 13.07 СЗ 1
{3}
н/о н/о +28.8 +6.2 24 +28 +28 жарко 1014.5 916.2
18 13.07 СЗ 1
{2}
н/о н/о +29.2 +6.3 24 +28 +28 жарко 1013.5 915.4
19 13.07 С 1
{3}
н/о н/о +27.8 +6.1 25 +27 +27 жарко 1013.9 915.3
20 13.07 СЗ 1
{2}
н/о н/о +27.0 +5.8 26 +26 +26 жарко 1014.3 915.4
21 13.07 штиль 0
{2}
н/о н/о +24.4 +8.2 36 +25 +25 комфорт 1015.5 915.7
22 13.07 штиль 0
{1}
н/о н/о +23.0 +8.7 40 +24 +24 комфорт 1016.2 915.9
23 13.07 В 1
{2}
н/о н/о +22.2 +8.7 42 +24 +24 комфорт 1017.1 916.4
00 14.07 СВ 1
{2}
н/о н/о +21.7 +8.7 43 +23 +23 комфорт 1017.5 916.6
01 14.07 СВ 1
{2}
н/о н/о +21.9 +8.7 43 +23 +23 комфорт 1017.9 917.0
02 14.07 СВ 1
{2}
н/о н/о +21.1 +8.9 46 +22 +22 комфорт 1018.0 916.9
03 14.07 СВ 1
{2}
н/о н/о +20.9 +8.8 46 +23 +23 комфорт 1017.9 916.7
04 14.07 СВ 1
{2}
н/о н/о +21.0 +7.9 43 +23 +23 комфорт 1017.3 916.2
05 14.07 С 1
{2}
н/о н/о +21.4 +7.1 40 +22 +22 комфорт 1016.7 915.8
06 14.07 СВ 1
{3}
н/о н/о +20.6 +6.8 41 +23 +23 комфорт 1016.7 915.5
07 14.07 СВ 1
{2}
н/о н/о +19.6 +6.7 43 +22 +22 комфорт 1016.7 915.2
08 14.07 СВ 1
{2}
н/о н/о +18.9 +7.1 46 +20 +20 1017.1 915.3
09 14.07 СВ 1
{2}
н/о н/о +18.9 +7.0 46 +21 +21 комфорт 1017.5 915.7
10 14.07 штиль 0
{2}
н/о н/о +16.7 +8.8 60 +17 +17 1019.2 916.5
11 14.07 штиль 0
{1}
н/о н/о +19.5 +8.7 50 +20 +20 1019.1 917.3
12 14.07 ЮЗ 1
{2}
н/о н/о +20.7 +8.2 45 +24 +24 комфорт 1019.2 917.8
13 14.07 штиль 0
{1}
н/о н/о +23.2 +8.4 39 +24 +24 комфорт 1018.5 918.0
14 14.07 С 1
{3}
н/о н/о +26.1 +7.7 31 +26 +26 жарко 1017.1 917.7
15 14.07 С 1
{3}
н/о н/о +28.5 +6.9 26 +28 +28 жарко 1015.6 917.1
16 14.07 С 1
{3}
н/о н/о +28.0 +5.8 24 +27 +27 жарко 1014.8 916.2
17 14.07 З 1
{3}
н/о н/о +29.6 +4.2 20 +28 +28 жарко 1013.3 915.3
18 14.07 ЮЗ 1
{2}
н/о н/о +28.8 +4.0 21 +27 +27 жарко 1012.9 914.7
19 14.07 З 1
{3}
н/о н/о +27.6 +3.4 21 +26 +26 жарко 1013.2 914.6
20 14.07 штиль 0
{2}
н/о н/о +26.5 +6.7 28 +26 +26 жарко 1013.8 914.8
21 14.07 штиль 0
{1}
н/о н/о +24.3 +6.7 32 +24 +24 комфорт 1014.7 914.9
22 14.07 штиль 0
{1}
н/о н/о +23.2 +6.3 34 +24 +24 комфорт 1015.5 915.3
23 14.07 штиль 0
{1}
н/о н/о +22.4 +6.0 35 +23 +23 комфорт 1016.3 915.8
00 15.07 штиль 0
{1}
н/о н/о +22.4 +5.9 34 +23 +23 комфорт 1016.6 916.0
01 15.07 С 1
{2}
н/о н/о +22.1 +6.4 36 +23 +23 комфорт 1016.8 916.1
02 15.07 СВ 1
{2}
н/о н/о +21.8 +6.6 37 +23 +23 комфорт 1017.0 916.2
03 15.07 СВ 1
{2}
н/о н/о +21.9 +6.1 36 +23 +23 комфорт 1016.6 915.9
04 15.07 СВ 1
{2}
н/о н/о +22.0 +5.4 34 +22 +22 комфорт 1016.2 915.5
05 15.07 С 1
{2}
н/о н/о +21.5 +5.0 34 +22 +22 комфорт 1015.9 915.1
06 15.07 С 1
{2}
н/о н/о +20.3 +5.3 37 +22 +22 комфорт 1016.1 914.9
07 15.07 штиль 0
{2}
н/о н/о +18.4 +5.7 43 +19 +19 1016.6 914.7
08 15.07 С 1
{1}
н/о н/о +18.9 +5.3 41 +21 +21 комфорт 1016.4 914.7
09 15.07 СЗ 1
{2}
н/о н/о +19.8 +4.1 35 +22 +22 комфорт 1016.4 915.0
10 15.07 С 1
{1}
н/о н/о +19.0 +5.2 40 +21 +21 комфорт 1017.2 915.5
11 15.07 штиль 0
{1}
н/о н/о +20.6 +5.8 38 +21 +21 комфорт 1017.3 916.1
12 15.07 СВ 1
{2}
н/о н/о +23.6 +3.8 28 +23 +23 комфорт 1016.8 916.6
13 15.07 С 1
{3}
н/о н/о +26.1 +5.4 27 +25 +25 комфорт 1016.1 916.8
14 15.07 С 2
{3}
н/о н/о +27.3 +5.1 24 +26 +26 жарко 1015.6 916.7
15 15.07 СЗ 1
{3}
н/о н/о +29.3 +4.7 21 +28 +28 жарко 1014.0 915.9
16 15.07 З 1
{4}
н/о н/о +28.8 +3.7 20 +27 +27 жарко 1013.4 915.2
17 15.07 Ю 1
{5}
н/о н/о +29.2 +3.9 20 +27 +27 жарко 1012.5 914.5
18 15.07 ЮЗ 1
{5}
н/о н/о +27.9 +3.2 20 +26 +26 жарко 1012.6 914.2
20 15.07 З 1
{3}
н/о н/о +27.0 +3.9 23 +26 +26 жарко 1013.3 914.5
21 15.07 З 1
{2}
н/о н/о +25.1 +4.7 27 +25 +25 комфорт 1014.3 914.8
22 15.07 С 1
{1}
н/о н/о +23.8 +5.3 30 +24 +24 комфорт 1014.7 914.8
23 15.07 штиль 0
{1}
н/о н/о +21.7 +6.2 37 +22 +22 комфорт 1016.0 915.3
00 16.07 С 1
{1}
н/о н/о +23.6 +5.4 31 +24 +24 комфорт 1015.7 915.6
01 16.07 С 1
{1}
н/о н/о +23.5 +5.8 32 +24 +24 комфорт 1015.8 915.7
02 16.07 С 2
{3}
н/о н/о +22.9 +4.8 31 +23 +23 комфорт 1015.9 915.6
03 16.07 С 1
{3}
н/о н/о +21.2 +4.9 34 +22 +22 комфорт 1016.3 915.4
04 16.07 СЗ 1
{2}
н/о н/о +20.6 +4.2 34 +22 +22 комфорт 1016.2 915.1
05 16.07 СЗ 1
{3}
н/о н/о +19.6 +4.5 37 +21 +21 комфорт 1015.9 914.5
06 16.07 СЗ 1
{2}
н/о н/о +19.0 +4.7 39 +20 +20 1015.6 914.0
07 16.07 СЗ 1
{2}
н/о н/о +19.8 +4.3 36 +21 +21 комфорт 1015.2 913.9
08 16.07 ЮЗ 1
{3}
н/о н/о +17.7 +7.7 52 +19 +19 1017.3 915.1
09 16.07 З 1
{2}
н/о н/о +18.0 +7.7 51 +20 +20 1017.4 915.3
10 16.07 штиль 0
{1}
н/о н/о +17.4 +7.3 51 +17 +17 1018.2 915.8
11 16.07 штиль 0
{1}
н/о н/о +20.0 +8.0 46 +21 +21 комфорт 1018.1 916.6
12 16.07 Ю 1
{2}
н/о н/о +22.3 +8.4 41 +24 +24 комфорт 1017.9 917.2
13 16.07 Ю 1
{2}
н/о н/о +23.7 +6.7 33 +24 +24 комфорт 1017.9 917.6
14 16.07 Ю 1
{2}
н/о н/о +25.8 +6.6 29 +25 +25 комфорт 1017.0 917.5
15 16.07 Ю 1
{3}
н/о н/о +26.2 +7.9 31 +26 +26 жарко 1016.4 917.1
16 16.07 Ю 1
{3}
н/о н/о +26.4 +8.0 31 +26 +26 жарко 1015.5 916.3
17 16.07 Ю 1
{3}
н/о н/о +27.3 +8.6 31 +27 +27 жарко 1014.2 915.4
18 16.07 ЮЗ 1
{4}
н/о н/о +27.7 +8.7 30 +28 +28 жарко 1013.6 915.0
19 16.07 ЮЗ 1
{3}
н/о н/о +26.8 +9.2 33 +27 +27 жарко 1013.8 914.9
20 16.07 Ю 1
{3}
н/о н/о +26.5 +8.9 33 +27 +27 жарко 1014.2 915.2
21 16.07 Ю 1
{3}
н/о н/о +24.9 +9.8 38 +26 +26 жарко 1015.2 915.6
22 16.07 Ю 1
{3}
н/о н/о +23.3 +10.6 45 +25 +25 комфорт 1016.2 916.0
23 16.07 Ю 1
{2}
н/о н/о +22.4 +11.1 49 +25 +25 комфорт 1017.2 916.6
00 17.07 Ю 1
{2}
н/о н/о +21.7 +11.1 51 +24 +24 комфорт 1018.1 917.2
01 17.07 Ю 1
{2}
н/о н/о +20.6 +11.6 56 +24 +24 комфорт 1019.1 917.7
02 17.07 Ю 1
{2}
н/о н/о +19.7 +11.9 61 +22 +22 комфорт 1019.5 917.8
03 17.07 Ю 1
{2}
н/о н/о +19.0 +12.2 65 +21 +21 комфорт 1019.9 917.9
04 17.07 ЮВ 1
{2}
н/о н/о +17.7 +12.1 70 +19 +19 1020.2 917.7
05 17.07 ЮВ 1
{2}
н/о н/о +17.3 +11.9 71 +18 +18 1019.9 917.3
06 17.07 ЮВ 1
{2}
н/о н/о +17.0 +11.9 72 +19 +19 1019.4 916.8
07 17.07 ЮВ 1
{1}
н/о н/о +16.2 +12.2 77 +18 +18 1019.6 916.7
08 17.07 ЮВ 1
{2}
н/о н/о +15.9 +12.2 79 +17 +17 1019.9 916.9
09 17.07 ЮВ 1
{1}
н/о н/о +15.7 +12.1 79 +17 +17 1020.4 917.2
10 17.07 штиль 0
{1}
н/о н/о +14.9 +12.0 83 +15 +15 1021.4 917.9
11 17.07 ЮВ 1
{2}
н/о н/о +18.1 +12.2 68 +19 +19 1021.2 918.8
12 17.07 ЮВ 2
{3}
н/о н/о +19.3 +12.1 63 +21 +21 комфорт 1021.9 919.8
13 17.07 В 2
{3}
н/о н/о +21.8 +11.7 53 +24 +24 комфорт 1021.3 920.1
14 17.07 В 1
{3}
н/о н/о +24.1 +11.6 45 +26 +26 жарко 1020.3 919.9
15 17.07 ЮВ 1
{2}
н/о н/о +25.9 +11.3 40 +27 +27 жарко 1018.9 919.2
16 17.07 З 1
{2}
н/о н/о +25.8 +9.7 36 +26 +26 жарко 1018.0 918.4
17 17.07 Ю 1
{3}
н/о н/о +26.4 +10.1 36 +27 +27 жарко 1017.0 917.7
18 17.07 Ю 1
{3}
н/о н/о +27.3 +8.2 30 +27 +27 жарко 1016.4 917.4
19 17.07 З 1
{3}
н/о н/о +25.9 +8.0 32 +26 +26 жарко 1016.7 917.2
21 17.07 ЮЗ 1
{2}
н/о н/о +23.7 +8.5 38 +24 +24 комфорт 1018.2 917.9
22 17.07 З 1
{2}
н/о н/о +21.9 +7.9 41 +23 +23 комфорт 1018.7 917.8
23 17.07 штиль 0
{1}
н/о н/о +21.0 +8.5 45 +22 +22 комфорт 1019.7 918.4
00 18.07 Ю 1
{3}
н/о н/о +20.1 +9.0 49 +22 +22 комфорт 1020.8 919.1
01 18.07 Ю 1
{2}
н/о н/о +18.9 +9.3 54 +21 +21 комфорт 1021.7 919.5
02 18.07 Ю 1
{3}
н/о н/о +18.0 +9.3 57 +19 +19 1021.8 919.3
03 18.07 ЮВ 1
{3}
н/о н/о +16.6 +9.3 62 +18 +18 1022.4 919.3
04 18.07 ЮВ 1
{2}
н/о н/о +15.8 +9.4 66 +17 +17 1022.1 918.8
06 18.07 В 1
{2}
н/о н/о +15.2 +9.9 71 +16 +16 1021.7 918.2
07 18.07 В 1
{3}
н/о н/о +15.7 +11.1 74 +16 +16 1021.5 918.2
10 18.07 В 2
{4}
н/о н/о +15.0 +11.0 77 +15 +15 1022.8 919.2
11 18.07 В 2
{4}
н/о н/о +16.2 +11.3 73 +16 +16 1023.3 920.0
12 18.07 В 2
{4}
н/о н/о +18.1 +11.6 66 +19 +19 1023.6 920.9
13 18.07 В 3
{5}
н/о н/о +19.7 +12.4 63 +22 +22 комфорт 1023.4 921.3
14 18.07 СВ 3
{5}
н/о н/о +21.6 +12.4 56 +24 +24 комфорт 1022.6 921.2
21 18.07 СВ 1
{2}
н/о н/о +22.4 +12.1 52 +25 +25 комфорт 1019.8 918.9
22 18.07 СВ 1
{2}
н/о н/о +20.7 +12.3 59 +24 +24 комфорт 1020.7 919.2
23 18.07 СВ 1
{3}
н/о н/о +20.1 +12.6 62 +23 +23 комфорт 1021.6 919.8
00 19.07 СВ 1
{3}
н/о н/о +19.3 +12.9 66 +22 +22 комфорт 1022.2 920.1
01 19.07 СВ 1
{2}
н/о н/о +18.7 +12.9 69 +21 +21 комфорт 1022.9 920.5
02 19.07 В 1
{2}
н/о н/о +18.1 +12.9 72 +19 +19 1023.1 920.5
03 19.07 В 1
{3}
н/о н/о +18.0 +12.2 69 +19 +19 1022.9 920.3
04 19.07 В 1
{3}
н/о н/о +17.5 +11.6 68 +19 +19 1023.1 920.3
05 19.07 В 2
{4}
н/о н/о +16.9 +10.9 68 +17 +17 1022.9 919.9
06 19.07 В 2
{3}
н/о н/о +16.0 +10.4 69 +16 +16 1022.8 919.5
07 19.07 В 2
{3}
н/о н/о +15.4 +10.1 71 +16 +16 1023.1 919.6
08 19.07 В 1
{3}
н/о н/о +15.1 +10.0 72 +16 +16 1023.5 919.8
09 19.07 СВ 1
{2}
н/о н/о +14.8 +10.1 73 +15 +15 1024.1 920.3
10 19.07 В 2
{4}
н/о н/о +14.8 +10.1 73 +15 +15 1025.0 921.1
11 19.07 СВ 2
{4}
н/о н/о +16.1 +10.0 67 +16 +16 1025.4 921.9
12 19.07 В 3
{5}
н/о н/о +17.1 +9.8 62 +17 +17 1025.9 922.7
13 19.07 СВ 3
{6}
н/о н/о +18.5 +9.7 57 +19 +19 1025.8 923.0
14 19.07 СВ 3
{6}
н/о н/о +20.4 +9.5 50 +22 +22 комфорт 1024.4 922.4
15 19.07 СВ 2
{5}
н/о н/о +21.3 +9.4 47 +23 +23 комфорт 1023.5 921.9
16 19.07 СВ 2
{5}
н/о н/о +22.6 +9.1 42 +24 +24 комфорт 1022.0 921.0
17 19.07 В 2
{4}
н/о н/о +22.8 +8.4 40 +24 +24 комфорт 1021.1 920.2
18 19.07 СВ 1
{4}
н/о н/о +23.5 +8.1 37 +24 +24 комфорт 1019.9 919.4
19 19.07 В 2
{3}
н/о н/о +23.0 +7.6 37 +24 +24 комфорт 1019.8 919.1
20 19.07 В 1
{3}
н/о н/о +22.1 +7.8 40 +23 +23 комфорт 1020.2 919.2
21 19.07 СВ 1
{2}
н/о н/о +20.0 +8.6 48 +22 +22 комфорт 1021.4 919.6
22 19.07 В 1
{2}
н/о н/о +18.2 +8.4 53 +19 +19 1022.5 920.0
23 19.07 В 1
{3}
н/о н/о +17.1 +8.4 57 +19 +19 1023.4 920.4

 

Местоположение метеостанции Каталан (Гояс, Бразилия): широта -18.15 долгота -47.93 высота над уровнем моря 892 м.

В архиве по умолчанию представлена погода в Каталане за последнюю неделю. Архивные данные за месяц целиком и за предыдущие месяцы, начиная с января 2011 года, Вы можете получить, выбрав интересующий диапазон дат из раскрывающегося списка и нажав кнопку "Ввод!".


*Определитесь, кто Вы:
робот инопланетянин человек

Внимание! Время в таблицах - всемирное. Для получения местного времени необходимо прибавить поправку, которая равна -3 ч.

Смотрите также архив погоды в соседних городах и на ближайших метеорологических станциях:

Погода в Каталане (Гояс, Бразилия) (4 км)
Погода в Уберландии (Минас-Жерайс, Бразилия) (92 км)
Погода в Гуарда-Море (Минас-Жерайс, Бразилия) (101 км)
Погода в Пирис-ду-Риу (Гояс, Бразилия) (102 км)
Погода в Морриньюсе (Гояс, Бразилия) (133 км)
Погода в Итумбиаре (Гояс, Бразилия) (137 км)
Погода в Патросиниу (Минас-Жерайс, Бразилия) (138 км)
Погода в Паракату (Минас-Жерайс, Бразилия) (154 км)
Погода в Кристалине (Гояс, Бразилия) (156 км)
Погода в Патус-ди-Минасе (Минас-Жерайс, Бразилия) (158 км)

Пояснения к столбцам:

Ветер - указаны скорость ветра в м/с - средняя за 10 мин, порывы в срок и между сроками (в фигурных скобках) и направление, откуда дует ветер: С - северный, СВ - северо-восточный, В - восточный, ЮВ - юго-восточный, Ю - южный, ЮЗ - юго-западный, З - западный, СЗ - северо-западный.
Видимость - горизонтальная дальность видимости в метрах или километрах. При видимости от 1 до 10 км при отсутствии осадков обычно наблюдается дымка, при ухудшении видимости до 1 км и менее - туман. В сухую погоду видимость может ухудшаться дымом, пылью или мглою.
Явления - указаны атмосферные явления, наблюдавшиеся в срок или в последний час перед сроком; фигурными скобками обозначены явления, наблюдавшиеся между сроками (за 1-3 часа до срока); квадратными скобками обозначены град или гололедные отложения с указанием их диаметра в мм.
Облачность - указаны через наклонную черту общая и нижняя облачность в баллах и высота нижней границы облаков в метрах; квадратными скобками обозначены формы облаков: Ci - перистые, Cs - перисто-слоистые, Cc - перисто-кучевые, Ac - высококучевые, As - высокослоистые, Sc - слоисто-кучевые, Ns - слоисто-дождевые, Cu - кучевые, Cb - кучево-дождевые. Подробнее классификацию облаков см. в Атласе облаков (PDF).
T - Температура воздуха - температура, измеренная на высоте 2 м над землей.
Td - Температура точки росы - температура, при понижении до которой содержащийся в воздухе водяной пар достигнет насыщения.
f - Относительная влажность воздуха - влажноcть воздуха, измеренная на высоте 2 м над землей.
Te - Эффективная температура - температура, которую ощущает одетый по сезону человек в тени. Характеристика душности погоды. При расчете учитывается влияние влажности воздуха и скорости ветра на теплоощущения человека.
Tes - Эффективная температура на солнце - температура, которую ощущает человек, с поправкой на солнечный нагрев. Характеристика знойности погоды. Зависит от высоты солнца над горизонтом, облачности и скорости ветра. Ночью, в пасмурную погоду, а также при ветре 12 м/с и более поправка равна нулю.
P - Атмосферное давление - приведенное к уровню моря атмосферное давление.
Po - Атмосферное давление - измеренное на уровне метеостанции атмосферное давление.
Tmin - Минимальная температура - минимум температуры воздуха на высоте 2 м над землей.
Tmax - Максимальная температура - максимум температуры воздуха на высоте 2 м над землей.
R - Количество осадков - Количество выпавших осадков за период времени, мм. При наведении курсора мыши на число - период времени, за который выпало указанное количество осадков.
R24 - Количество осадков - Количество выпавших осадков за 24 часа, мм.
S - Снежный покров - Высота снежного покрова, см. При наведении курсора мыши на число - состояние снежного покрова и степень покрытия местности в баллах.